Location: Glion
(46.4330°N, 6.9246°E)
Time: 17:23:52
(UTC+00:00)

Cosmos 1241 Rocket - Pass Details

Date: 03 March 2021
Orbit: 929 x 1019 km, 65.8° (Epoch: 19 April)

Event Time Altitude Azimuth Distance (km) Brightness Sun altitude
Rises 19:24:59 0° 324° (NW) 3,767 8.3 -22.0°
Reaches altitude 10° 19:27:36 10° 324° (NW) 2,809 7.6 -22.4°
Maximum altitude 19:34:14 87° 235° (SW) 1,015 4.5 -23.5°
Enters shadow 19:36:51 40° 150° (SSE) 1,446 5.0 -23.9°
